星链-3917 (STARLINK-3917 )

导读 | 星芒AI

STARLINK-3917 是由 SpaceX 开发并发射的星链(Starlink)卫星之一,属于其低轨卫星互联网星座的一部分。该卫星旨在为全球用户提供高速、低延迟的互联网服务,特别是在网络基础设施薄弱的地区。它运行在约 550 公里的低地球轨道上,采用先进的通信技术,支持全球范围内的宽带连接。STARLINK-3917 的成功部署有助于扩大星链计划的覆盖范围,提升互联网接入的普及率和稳定性。

基本信息
目录编号:
52588
目录名称:
STARLINK-3917
国际标识:
2022-051BE
轨道中心:
EARTH
卫星名称:
星链-3917
卫星全名:
星链-3917 (STARLINK-3917 )
卫星状态:
在轨 (已飞行1318 天)
发射日期:
2022-05-13 UTC
国别 :
美国 (US)
星等 :
--
轨道信息
数据来源 国际轨道数据 AOE轨道数据
星历时间 2025-12-21T00:44:36+0800
12小时前
查看轨道信息
2025-12-18T05:00:00+0800
3天前
查看轨道信息
半长轴 6917.869km 6917.932km
偏心率 0.0001239 0.0002314
轨道倾角 53.217° 53.217°
近地点辐角 85.201° 105.543°
升交点赤经 113.728° 126.402°
平近点角 274.912° 34.046°
近地点 538.874km 538.196km
远地点 540.59km 541.398km
周期 95.437分钟 95.439分钟
每日圈数 15.088438 15.088234
详细信息
固有亮度:
5
最大亮度:
2.5
卫星平台:
Starlink v1.5
覆盖范围:
全球
运营商:
太空探索技术公司
运营商所在国:
美国
制造商(研发单位):
太空探索技术公司
制造商所在国:
美国
使用方式:
暂无
卫星简介
星链(Starlink)计划是由太空探索技术公司(SpaceX)提出的一个巨型低轨卫星互联网星座项目,计划在2019年至2024年间在太空搭建由约1.2万颗卫星组成的“星链”网络,其中1584颗将部署在地球上空550千米处的近地轨道,并从2020年开始工作。该卫星仍在工作。
2D轨道图
3D轨道图
轨道高度分析图
轨道倾角分析图
轨道综合分析图
查看轨道综合分析图